Altus AFB, OK

9:25 AM CST on December 11, 2019 (GMT -0600)
Altus Air Force Base

Weather History for KLTS - November, 2019

Change the Weather History Date:

Tuesday, November 12, 2019

  Actual Average Record
Temperature  
Mean Temperature 24 °F -  
Max Temperature 37 °F 61 °F 80 °F (1999)
Min Temperature 12 °F 40 °F 23 °F (2014)
Degree Days  
Heating Degree Days 40    
Moisture  
Dew Point 6 °F    
Average Humidity 49    
Maximum Humidity 72    
Minimum Humidity 24    
Precipitation  
Precipitation 0.00 in - - ()
Sea Level Pressure  
Sea Level Pressure 30.58 in    
Wind  
Wind Speed 7 mph ()    
Max Wind Speed 15 mph    
Max Gust Speed -    
Visibility 10.0 miles    
Events      
Averages and records for this station are not official NWS values.
T = Trace of Precipitation, MM = Missing Value Source: Averaged Metar Reports

Daily Weather History Graph

Daily Weather History Graph

Search for Another Location

Airport or City:

Astronomy

Nov. 12, 2019 Rise Set
Actual Time 7:07 AM CST 5:34 PM CST
Civil Twilight 6:41 AM CST 6:00 PM CST
Nautical Twilight 6:10 AM CST 6:31 PM CST
Astronomical Twilight 5:41 AM CST 7:00 PM CST
Moon 6:01 PM CST (11/12) 7:02 AM CST (11/12)
Length of Visible Light 11h 19m
Length of Day
10h 26m
Full, 100% of the Moon is Illuminated
Nov 12
Full
Nov 19
Last Quarter
Nov 26
New
Dec 4
First Quarter
Dec 11
Full

Hourly Weather History & Observations

Time (CST) Temp. Windchill Dew Point Humidity Pressure Visibility Wind Dir Wind Speed Gust Speed Precip Events Conditions
12:56 AM 19.8 °F 5.9 °F 2.7 °F 48% 30.74 in 10.0 mi North 15.0 mph - N/A   Clear
1:56 AM 17.6 °F 5.7 °F 4.5 °F 56% 30.76 in 10.0 mi NNE 10.4 mph - N/A   Clear
2:56 AM 17.4 °F 4.7 °F 4.3 °F 56% 30.76 in 10.0 mi North 11.5 mph - N/A   Clear
4:56 AM 14.9 °F 4.0 °F 4.1 °F 62% 30.75 in 10.0 mi North 8.1 mph - N/A   Clear
5:56 AM 12.7 °F 6.7 °F 3.7 °F 67% 30.74 in 10.0 mi North 3.5 mph - N/A   Clear
6:56 AM 13.5 °F 5.8 °F 6.1 °F 72% 30.74 in 10.0 mi WNW 4.6 mph - N/A   Clear
7:56 AM 15.8 °F 7.2 °F 7.2 °F 69% 30.74 in 10.0 mi NW 5.8 mph - N/A   Clear
8:56 AM 20.5 °F 12.8 °F 7.2 °F 56% 30.74 in 10.0 mi NNW 5.8 mph - N/A   Clear
9:56 AM 24.3 °F 17.3 °F 6.4 °F 47% 30.72 in 10.0 mi NNE 5.8 mph - N/A   Clear
10:56 AM 28.0 °F 22.8 °F 5.0 °F 38% 30.70 in 10.0 mi NNE 4.6 mph - N/A   Clear
12:56 PM 32.7 °F 29.6 °F 3.2 °F 29% 30.60 in 10.0 mi West 3.5 mph - N/A   Clear
1:56 PM 35.2 °F 31.2 °F 3.7 °F 27% 30.55 in 10.0 mi SW 4.6 mph - N/A   Clear
2:56 PM 37.2 °F 32.6 °F 2.8 °F 24% 30.52 in 10.0 mi SSW 5.8 mph - N/A   Clear
3:56 PM 37.2 °F 31.9 °F 2.8 °F 24% 30.49 in 10.0 mi WSW 6.9 mph - N/A   Clear
4:56 PM 35.8 °F 28.3 °F 2.5 °F 25% 30.46 in 10.0 mi SSW 10.4 mph - N/A   Partly Cloudy
5:56 PM 28.0 °F 19.3 °F 4.5 °F 37% 30.46 in 10.0 mi South 9.2 mph - N/A   Partly Cloudy
6:56 PM 26.4 °F 17.3 °F 7.3 °F 45% 30.44 in 10.0 mi SSE 9.2 mph - N/A   Partly Cloudy
7:56 PM 23.7 °F 15.6 °F 7.7 °F 51% 30.43 in 10.0 mi South 6.9 mph - N/A   Partly Cloudy
8:56 PM 21.7 °F 12.3 °F 9.5 °F 59% 30.40 in 10.0 mi South 8.1 mph - N/A   Clear
9:56 PM 22.8 °F 14.5 °F 11.7 °F 62% 30.38 in 10.0 mi South 6.9 mph - N/A   Clear
10:56 PM 23.7 °F 15.6 °F 12.2 °F 61% 30.33 in 10.0 mi South 6.9 mph - N/A   Clear
11:56 PM 24.1 °F 15.2 °F 12.2 °F 61% 30.31 in 10.0 mi South 8.1 mph - N/A   Partly Cloudy